Hourly Data Report for June 19, 2021

LYTTON RCS
BRITISH COLUMBIA
Current Station Operator: ECCC - MSC

50°13'28.000" N
121°34'55.000" W
225.00 m
1114746
71765
VLY

Download Data

Hourly Data (June 2021)
Hourly Data Report for June 19, 2021
TIME
LST
Temp Definition
°C
Dew Point Definition
°C
Rel Hum Definition
%
Precip. Amount Definition
mm

Wind Dir Definition
10's deg

Wind Spd Definition
km/h
Visibility Definition
km
Stn Press Definition
kPa
Hmdx Definition


Wind Chill Definition


Weather Definition


00:00 19.5 7.2 45 0.0 18 29   98.70     LegendNANA
01:00 18.8 6.8 46 0.0 18 30   98.75     LegendNANA
02:00 18.3 7.1 48 0.0 19 28   98.75     LegendNANA
03:00 17.8 7.4 50 0.0 19 29   98.77     LegendNANA
04:00 17.3 7.8 54 0.0 19 33   98.76     LegendNANA
05:00 17.2 7.8 54 0.0 19 31   98.79     LegendNANA
06:00 17.2 7.9 54 0.0 19 32   98.80     LegendNANA
07:00 17.1 8.2 56 0.0 19 30   98.81     LegendNANA
08:00 17.7 8.6 55 0.0 18 31   98.81     LegendNANA
09:00 18.8 9.0 53 0.0 18 30   98.78     LegendNANA
10:00 20.1 9.1 49 0.0 19 29   98.76     LegendNANA
11:00 23.0 9.3 42 0.0 18 28   98.73     LegendNANA
12:00 25.1 9.1 36 0.0 18 31   98.67 26   LegendNANA
13:00 24.6 9.3 38 0.0 18 31   98.59 26   LegendNANA
14:00 23.9 9.2 39 0.0 19 26   98.58 25   LegendNANA
15:00 24.2 9.5 39 0.0 19 29   98.58 25   LegendNANA
16:00 23.4 9.5 41 0.0 18 29   98.57     LegendNANA
17:00 22.7 9.6 43 0.0 20 20   98.62     LegendNANA
18:00 22.1 9.2 44 0.0 27 6   98.79     LegendNANA
19:00 17.0 11.9 72 0.0 33 18   98.99     LegendNANA
20:00 15.4 14.1 92 0.4 2 3   99.10     LegendNANA
21:00 15.6 13.6 88 0.0 3 3   99.18     LegendNANA
22:00 14.7 12.6 88 0.0 2 4   99.22     LegendNANA
23:00 13.7 11.9 89 0.0 2 6   99.24     LegendNANA

Notes on Data Quality.

Legend

  • E = Estimated
  • M = Missing
  • NA = Not Available*
  • [empty] = Indicates an unobserved value
Date modified: